Time,TemperatureF,DewpointF,PressureIn,WindDirection,WindDirectionDegrees,WindSpeedMPH,WindSpeedGustMPH,Humidity,HourlyPrecipIn,Conditions,Clouds,dailyrainin,SoftwareType,DateUTC
2013-02-03 00:04:00,9.4,7.0,30.01,SW,217,4.0,5.0,88,0.00,,,0.00,weatherlink.com 1.10,2013-02-03 06:04:00,
2013-02-03 00:19:00,9.4,7.0,30.01,SSW,196,2.0,5.0,89,0.00,,,0.00,weatherlink.com 1.10,2013-02-03 06:19:00,
2013-02-03 00:34:00,9.6,7.0,30.00,SSW,193,2.0,4.0,89,0.00,,,0.00,weatherlink.com 1.10,2013-02-03 06:34:00,
2013-02-03 00:49:00,9.8,7.0,30.00,SW,225,4.0,4.0,89,0.00,,,0.00,weatherlink.com 1.10,2013-02-03 06:49:00,
2013-02-03 01:04:00,10.0,8.0,29.99,SSW,207,2.0,4.0,90,0.00,,,0.00,weatherlink.com 1.10,2013-02-03 07:04:00,
2013-02-03 01:19:00,10.1,8.0,29.99,SW,219,3.0,5.0,90,0.00,,,0.00,weatherlink.com 1.10,2013-02-03 07:19:00,
2013-02-03 01:34:00,10.1,8.0,29.99,SSW,213,2.0,3.0,90,0.00,,,0.00,weatherlink.com 1.10,2013-02-03 07:34:00,
2013-02-03 01:49:00,10.2,8.0,29.98,South,171,2.0,4.0,90,0.00,,,0.00,weatherlink.com 1.10,2013-02-03 07:49:00,
2013-02-03 02:04:00,10.3,8.0,29.98,South,186,2.0,4.0,91,0.00,,,0.00,weatherlink.com 1.10,2013-02-03 08:04:00,
2013-02-03 02:19:00,10.5,8.0,29.98,SSW,192,3.0,4.0,91,0.00,,,0.00,weatherlink.com 1.10,2013-02-03 08:19:00,
2013-02-03 02:34:00,10.7,9.0,29.97,South,186,2.0,4.0,91,0.00,,,0.00,weatherlink.com 1.10,2013-02-03 08:34:00,
2013-02-03 02:49:00,10.9,9.0,29.96,South,188,1.0,4.0,91,0.00,,,0.00,weatherlink.com 1.10,2013-02-03 08:49:00,
2013-02-03 03:04:00,11.1,9.0,29.96,SSW,201,0.0,4.0,91,0.00,,,0.00,weatherlink.com 1.10,2013-02-03 09:04:00,
2013-02-03 03:19:00,11.2,9.0,29.95,South,169,0.0,3.0,91,0.00,,,0.00,weatherlink.com 1.10,2013-02-03 09:19:00,
2013-02-03 03:34:00,11.3,9.0,29.95,South,171,1.0,2.0,91,0.00,,,0.00,weatherlink.com 1.10,2013-02-03 09:34:00,
2013-02-03 03:49:00,11.5,9.0,29.95,South,189,3.0,3.0,91,0.00,,,0.00,weatherlink.com 1.10,2013-02-03 09:49:00,
2013-02-03 04:04:00,11.6,10.0,29.95,SSW,194,1.0,3.0,91,0.00,,,0.00,weatherlink.com 1.10,2013-02-03 10:04:00,
2013-02-03 04:19:00,11.8,10.0,29.95,SSW,211,2.0,4.0,91,0.00,,,0.00,weatherlink.com 1.10,2013-02-03 10:19:00,
2013-02-03 04:34:00,11.9,10.0,29.96,SW,215,3.0,4.0,91,0.00,,,0.00,weatherlink.com 1.10,2013-02-03 10:34:00,
2013-02-03 04:49:00,12.1,10.0,29.96,SW,235,4.0,5.0,92,0.00,,,0.00,weatherlink.com 1.10,2013-02-03 10:49:00,
2013-02-03 05:04:00,12.1,10.0,29.97,SW,234,3.0,6.0,92,0.00,,,0.00,weatherlink.com 1.10,2013-02-03 11:04:00,
2013-02-03 05:19:00,12.2,11.0,29.97,WSW,238,2.0,4.0,93,0.00,,,0.00,weatherlink.com 1.10,2013-02-03 11:19:00,
2013-02-03 05:34:00,12.4,11.0,29.96,SW,235,3.0,4.0,93,0.00,,,0.00,weatherlink.com 1.10,2013-02-03 11:34:00,
2013-02-03 05:49:00,12.5,11.0,29.97,WSW,238,1.0,4.0,93,0.00,,,0.00,weatherlink.com 1.10,2013-02-03 11:49:00,
2013-02-03 06:04:00,12.6,11.0,29.97,SW,234,1.0,4.0,93,0.00,,,0.00,weatherlink.com 1.10,2013-02-03 12:04:00,
2013-02-03 06:19:00,12.7,11.0,29.96,SW,234,0.0,3.0,92,0.00,,,0.00,weatherlink.com 1.10,2013-02-03 12:19:00,
2013-02-03 06:34:00,12.9,11.0,29.97,WSW,248,1.0,3.0,92,0.00,,,0.00,weatherlink.com 1.10,2013-02-03 12:34:00,
2013-02-03 06:49:00,13.1,11.0,29.97,WSW,255,0.0,2.0,92,0.00,,,0.00,weatherlink.com 1.10,2013-02-03 12:49:00,
2013-02-03 07:04:00,13.4,12.0,29.98,West,271,1.0,3.0,93,0.00,,,0.00,weatherlink.com 1.10,2013-02-03 13:04:00,
2013-02-03 07:19:00,13.9,12.0,29.98,WNW,286,1.0,2.0,93,0.00,,,0.00,weatherlink.com 1.10,2013-02-03 13:19:00,
2013-02-03 07:34:00,14.3,13.0,29.99,WNW,292,1.0,2.0,93,0.00,,,0.00,weatherlink.com 1.10,2013-02-03 13:34:00,
2013-02-03 07:49:00,14.6,13.0,29.99,WNW,293,1.0,4.0,93,0.00,,,0.00,weatherlink.com 1.10,2013-02-03 13:49:00,
2013-02-03 08:04:00,14.9,13.0,30.00,WNW,295,1.0,5.0,92,0.00,,,0.00,weatherlink.com 1.10,2013-02-03 14:04:00,
2013-02-03 08:19:00,15.1,13.0,30.01,NW,312,1.0,7.0,92,0.00,,,0.00,weatherlink.com 1.10,2013-02-03 14:19:00,
2013-02-03 08:34:00,15.3,13.0,30.02,NW,318,2.0,6.0,92,0.00,,,0.00,weatherlink.com 1.10,2013-02-03 14:34:00,
2013-02-03 08:50:00,15.7,14.0,30.02,NW,320,1.0,5.0,91,0.00,,,0.00,weatherlink.com 1.10,2013-02-03 14:50:00,
2013-02-03 09:05:00,16.2,14.0,30.03,NNW,329,0.0,4.0,90,0.00,,,0.00,weatherlink.com 1.10,2013-02-03 15:05:00,
2013-02-03 09:20:00,16.8,14.0,30.02,WNW,290,3.0,4.0,90,0.00,,,0.00,weatherlink.com 1.10,2013-02-03 15:20:00,
2013-02-03 09:35:00,17.1,14.0,30.02,WNW,287,0.0,2.0,89,0.00,,,0.00,weatherlink.com 1.10,2013-02-03 15:35:00,
2013-02-03 09:50:00,17.3,14.0,30.02,West,273,2.0,4.0,88,0.00,,,0.00,weatherlink.com 1.10,2013-02-03 15:50:00,
2013-02-03 10:05:00,16.8,13.0,30.02,WNW,296,2.0,4.0,85,0.00,,,0.00,weatherlink.com 1.10,2013-02-03 16:05:00,
2013-02-03 10:20:00,16.8,13.0,30.04,West,277,4.0,7.0,83,0.00,,,0.00,weatherlink.com 1.10,2013-02-03 16:20:00,
2013-02-03 10:35:00,16.9,12.0,30.05,WNW,285,2.0,4.0,81,0.00,,,0.00,weatherlink.com 1.10,2013-02-03 16:35:00,
2013-02-03 10:50:00,17.1,12.0,30.05,WNW,299,1.0,5.0,80,0.00,,,0.00,weatherlink.com 1.10,2013-02-03 16:50:00,
2013-02-03 11:05:00,17.2,11.0,30.05,WNW,294,2.0,6.0,78,0.00,,,0.00,weatherlink.com 1.10,2013-02-03 17:05:00,
2013-02-03 11:20:00,17.0,11.0,30.05,WNW,296,2.0,6.0,78,0.00,,,0.00,weatherlink.com 1.10,2013-02-03 17:20:00,
2013-02-03 11:35:00,17.1,11.0,30.05,WNW,284,3.0,5.0,77,0.00,,,0.00,weatherlink.com 1.10,2013-02-03 17:35:00,
2013-02-03 11:50:00,17.0,11.0,30.05,WNW,296,2.0,5.0,76,0.00,,,0.00,weatherlink.com 1.10,2013-02-03 17:50:00,
2013-02-03 12:05:00,17.7,11.0,30.04,WNW,287,3.0,5.0,74,0.00,,,0.00,weatherlink.com 1.10,2013-02-03 18:05:00,
2013-02-03 12:20:00,18.0,11.0,30.05,West,276,2.0,4.0,74,0.00,,,0.00,weatherlink.com 1.10,2013-02-03 18:20:00,
2013-02-03 12:35:00,18.3,11.0,30.05,WNW,286,2.0,4.0,74,0.00,,,0.00,weatherlink.com 1.10,2013-02-03 18:35:00,
2013-02-03 12:50:00,18.6,11.0,30.05,WNW,292,3.0,5.0,73,0.00,,,0.00,weatherlink.com 1.10,2013-02-03 18:50:00,
2013-02-03 13:05:00,19.1,12.0,30.05,West,275,4.0,5.0,73,0.00,,,0.00,weatherlink.com 1.10,2013-02-03 19:05:00,
2013-02-03 13:20:00,19.4,12.0,30.04,West,273,3.0,7.0,72,0.00,,,0.00,weatherlink.com 1.10,2013-02-03 19:20:00,
2013-02-03 13:35:00,19.8,12.0,30.04,West,279,1.0,5.0,71,0.00,,,0.00,weatherlink.com 1.10,2013-02-03 19:35:00,
2013-02-03 13:50:00,20.0,12.0,30.04,West,277,3.0,4.0,71,0.00,,,0.00,weatherlink.com 1.10,2013-02-03 19:50:00,
2013-02-03 14:05:00,19.7,13.0,30.04,SW,221,6.0,7.0,74,0.00,,,0.00,weatherlink.com 1.10,2013-02-03 20:05:00,
2013-02-03 14:20:00,18.5,12.0,30.04,West,271,4.0,9.0,75,0.00,,,0.00,weatherlink.com 1.10,2013-02-03 20:20:00,
2013-02-03 14:35:00,18.6,12.0,30.04,WSW,250,4.0,9.0,76,0.00,,,0.00,weatherlink.com 1.10,2013-02-03 20:35:00,
2013-02-03 14:50:00,18.4,11.0,30.04,WSW,257,2.0,7.0,74,0.00,,,0.00,weatherlink.com 1.10,2013-02-03 20:50:00,
2013-02-03 15:05:00,18.4,12.0,30.03,West,261,4.0,7.0,75,0.00,,,0.00,weatherlink.com 1.10,2013-02-03 21:05:00,
2013-02-03 15:20:00,18.5,12.0,30.03,West,267,3.0,7.0,74,0.00,,,0.00,weatherlink.com 1.10,2013-02-03 21:20:00,
2013-02-03 15:35:00,18.7,12.0,30.03,West,273,2.0,5.0,74,0.00,,,0.00,weatherlink.com 1.10,2013-02-03 21:35:00,
2013-02-03 15:50:00,18.0,11.0,30.03,West,260,3.0,6.0,75,0.00,,,0.00,weatherlink.com 1.10,2013-02-03 21:50:00,
2013-02-03 16:05:00,17.7,11.0,30.03,West,268,4.0,7.0,76,0.00,,,0.00,weatherlink.com 1.10,2013-02-03 22:05:00,
2013-02-03 16:20:00,17.9,12.0,30.02,WSW,257,1.0,5.0,77,0.00,,,0.00,weatherlink.com 1.10,2013-02-03 22:20:00,
2013-02-03 16:35:00,17.9,12.0,30.02,West,267,2.0,5.0,76,0.00,,,0.00,weatherlink.com 1.10,2013-02-03 22:35:00,
2013-02-03 16:50:00,17.9,12.0,30.02,WSW,257,1.0,5.0,77,0.00,,,0.00,weatherlink.com 1.10,2013-02-03 22:50:00,
2013-02-03 17:05:00,17.8,12.0,30.02,WSW,253,0.0,4.0,78,0.00,,,0.00,weatherlink.com 1.10,2013-02-03 23:05:00,
2013-02-03 17:20:00,17.9,12.0,30.02,West,262,1.0,4.0,78,0.00,,,0.00,weatherlink.com 1.10,2013-02-03 23:20:00,
2013-02-03 17:35:00,18.0,13.0,30.01,WSW,254,1.0,5.0,79,0.00,,,0.00,weatherlink.com 1.10,2013-02-03 23:35:00,
2013-02-03 17:50:00,18.0,13.0,30.02,WSW,257,1.0,5.0,80,0.00,,,0.00,weatherlink.com 1.10,2013-02-03 23:50:00,
2013-02-03 18:05:00,18.0,13.0,30.02,West,270,2.0,6.0,80,0.00,,,0.00,weatherlink.com 1.10,2013-02-04 00:05:00,
2013-02-03 18:20:00,18.1,13.0,30.02,West,265,0.0,3.0,81,0.00,,,0.00,weatherlink.com 1.10,2013-02-04 00:20:00,
2013-02-03 18:35:00,18.1,13.0,30.03,WSW,257,2.0,3.0,80,0.00,,,0.00,weatherlink.com 1.10,2013-02-04 00:35:00,
2013-02-03 18:50:00,18.1,13.0,30.02,West,265,1.0,3.0,81,0.00,,,0.00,weatherlink.com 1.10,2013-02-04 00:50:00,
2013-02-03 19:05:00,18.1,13.0,30.02,West,264,1.0,3.0,80,0.00,,,0.00,weatherlink.com 1.10,2013-02-04 01:05:00,
2013-02-03 19:20:00,18.2,13.0,30.02,WSW,242,0.0,3.0,80,0.00,,,0.00,weatherlink.com 1.10,2013-02-04 01:20:00,
2013-02-03 19:35:00,18.2,13.0,30.02,West,268,2.0,4.0,80,0.00,,,0.00,weatherlink.com 1.10,2013-02-04 01:35:00,
2013-02-03 19:50:00,18.3,13.0,30.03,SW,227,3.0,5.0,81,0.00,,,0.00,weatherlink.com 1.10,2013-02-04 01:50:00,
2013-02-03 20:05:00,18.4,14.0,30.03,SW,228,3.0,4.0,81,0.00,,,0.00,weatherlink.com 1.10,2013-02-04 02:05:00,
2013-02-03 20:20:00,18.4,14.0,30.03,WSW,237,2.0,4.0,82,0.00,,,0.00,weatherlink.com 1.10,2013-02-04 02:20:00,
2013-02-03 20:35:00,18.0,15.0,30.04,SW,226,3.0,4.0,86,0.00,,,0.00,weatherlink.com 1.10,2013-02-04 02:35:00,
2013-02-03 20:50:00,17.7,15.0,30.04,SW,231,3.0,5.0,88,0.00,,,0.00,weatherlink.com 1.10,2013-02-04 02:50:00,
2013-02-03 21:05:00,17.7,15.0,30.04,WSW,238,2.0,3.0,90,0.00,,,0.00,weatherlink.com 1.10,2013-02-04 03:05:00,
2013-02-03 21:20:00,17.7,16.0,30.04,WSW,238,0.0,2.0,91,0.00,,,0.00,weatherlink.com 1.10,2013-02-04 03:20:00,
2013-02-03 21:35:00,17.7,16.0,30.04,WSW,238,0.0,0.0,91,0.00,,,0.00,weatherlink.com 1.10,2013-02-04 03:35:00,
2013-02-03 21:50:00,17.9,16.0,30.04,SW,220,1.0,2.0,92,0.00,,,0.00,weatherlink.com 1.10,2013-02-04 03:50:00,
2013-02-03 22:05:00,17.9,16.0,30.03,South,188,2.0,2.0,92,0.00,,,0.00,weatherlink.com 1.10,2013-02-04 04:05:00,
2013-02-03 22:20:00,18.0,16.0,30.02,SSE,166,2.0,3.0,92,0.00,,,0.00,weatherlink.com 1.10,2013-02-04 04:20:00,
2013-02-03 22:35:00,18.0,16.0,30.02,SSE,159,0.0,2.0,92,0.00,,,0.00,weatherlink.com 1.10,2013-02-04 04:35:00,
2013-02-03 22:50:00,18.1,16.0,30.01,SSE,153,0.0,1.0,92,0.00,,,0.00,weatherlink.com 1.10,2013-02-04 04:50:00,
2013-02-03 23:05:00,18.2,16.0,29.99,SSE,150,0.0,0.0,92,0.00,,,0.00,weatherlink.com 1.10,2013-02-04 05:05:00,
2013-02-03 23:20:00,18.2,16.0,29.99,SE,129,0.0,0.0,92,0.00,,,0.00,weatherlink.com 1.10,2013-02-04 05:20:00,
2013-02-03 23:35:00,18.4,17.0,29.98,ESE,118,0.0,2.0,93,0.00,,,0.00,weatherlink.com 1.10,2013-02-04 05:35:00,
2013-02-03 23:50:00,18.5,17.0,29.97,ESE,110,2.0,2.0,93,0.00,,,0.00,weatherlink.com 1.10,2013-02-04 05:50:00,